FW1372 Weather Reports


time (UTC)temp
C
wind
direction
speed
KPH
gust
KPH
rain 1hr
cm
rain 24hr
cm
rain mn
cm
humidity
%
barometer
mb
20200225101506 13 352 14.5 22.5 0.00 0.00 0.00 76 1025.7
20200225100508 13 346 12.9 22.5 0.00 0.00 0.00 77 1025.5
20200225100006 13 0 8.0 22.5 0.00 0.00 0.00 77 1025.6
20200225095507 12 350 16.1 22.5 0.00 0.00 0.00 77 1025.7
20200225095009 12 316 8.0 20.9 0.00 0.00 0.00 77 1025.5
20200225094507 12 23 11.3 20.9 0.00 0.00 0.00 77 1025.6
20200225094009 12 11 9.7 22.5 0.00 0.00 0.00 76 1025.6
20200225093507 12 334 12.9 22.5 0.00 0.00 0.00 76 1025.6
20200225093009 12 350 12.9 19.3 0.00 0.00 0.00 76 1025.5
20200225092506 12 344 8.0 20.9 0.00 0.00 0.00 76 1025.4
20200225092010 12 12 6.4 25.7 0.00 0.00 0.00 77 1025.3
20200225091009 12 342 11.3 24.1 0.00 0.00 0.00 77 1025.5
20200225090507 12 332 16.1 27.4 0.00 0.00 0.00 77 1025.2
20200225090007 12 345 14.5 27.4 0.00 0.00 0.00 77 1025.3
20200225085507 12 334 12.9 27.4 0.00 0.00 0.00 77 1025.2
20200225085009 12 336 16.1 32.2 0.00 0.00 0.00 76 1025.2
20200225084506 12 347 17.7 38.6 0.00 0.00 0.00 76 1025.3
20200225084009 12 334 17.7 38.6 0.00 0.00 0.00 76 1025.4
20200225083506 11 355 16.1 32.2 0.00 0.00 0.00 77 1025.2
20200225083009 11 339 14.5 24.1 0.00 0.00 0.00 77 1024.9
20200225082507 11 346 16.1 27.4 0.00 0.00 0.00 78 1024.8
20200225082009 11 323 12.9 27.4 0.00 0.00 0.00 78 1024.9
20200225081508 11 357 11.3 27.4 0.00 0.00 0.00 79 1025.0
20200225081009 11 358 17.7 27.4 0.00 0.00 0.00 80 1025.1
20200225080506 11 353 6.4 19.3 0.00 0.00 0.00 81 1025.1
20200225080006 11 327 1.6 19.3 0.00 0.00 0.00 81 1025.1
20200225075507 11 355 11.3 19.3 0.00 0.00 0.00 81 1025.1
20200225075009 11 316 8.0 16.1 0.00 0.00 0.00 81 1025.0
20200225074506 11 333 9.7 19.3 0.00 0.00 0.00 81 1024.9
20200225074009 11 313 4.8 22.5 0.00 0.00 0.00 81 1024.9
20200225073506 11 333 11.3 22.5 0.00 0.00 0.00 81 1025.1
20200225073010 11 344 8.0 16.1 0.00 0.00 0.00 81 1024.9
20200225072506 11 14 9.7 22.5 0.00 0.00 0.00 81 1024.8
20200225072008 11 328 11.3 22.5 0.00 0.00 0.00 81 1024.8
20200225071507 11 345 11.3 25.7 0.00 0.00 0.00 81 1024.8
20200225071009 11 349 14.5 25.7 0.00 0.00 0.00 81 1024.6
20200225070506 11 343 11.3 22.5 0.00 0.00 0.00 81 1024.5
20200225070006 11 18 9.7 22.5 0.00 0.00 0.00 82 1024.6
20200225065506 11 330 11.3 19.3 0.00 0.00 0.00 82 1024.6
20200225065009 11 357 8.0 19.3 0.00 0.00 0.00 82 1024.6
20200225064506 11 5 8.0 16.1 0.00 0.00 0.00 82 1024.5
20200225064009 11 345 9.7 19.3 0.00 0.00 0.00 82 1024.4
20200225063506 11 347 9.7 25.7 0.00 0.00 0.00 82 1024.4
20200225063009 11 348 14.5 25.7 0.00 0.00 0.00 82 1024.4
20200225062506 11 359 11.3 20.9 0.00 0.00 0.00 82 1024.4
20200225062009 11 333 14.5 19.3 0.00 0.00 0.00 82 1024.5
20200225061506 11 342 9.7 16.1 0.00 0.00 0.00 82 1024.6
20200225061009 11 322 8.0 19.3 0.00 0.00 0.00 82 1024.6
20200225060507 11 321 9.7 22.5 0.00 0.00 0.00 82 1024.6
20200225060006 11 322 17.7 25.7 0.00 0.00 0.00 81 1024.7
20200225055506 11 355 14.5 25.7 0.00 0.00 0.00 82 1024.8
20200225055009 11 327 12.9 19.3 0.00 0.00 0.00 82 1024.7
20200225054506 11 336 11.3 22.5 0.00 0.00 0.00 82 1024.8
20200225054008 11 353 11.3 22.5 0.00 0.00 0.00 81 1024.7
20200225053506 11 352 12.9 19.3 0.00 0.00 0.00 81 1024.5
20200225053008 11 356 9.7 19.3 0.00 0.00 0.00 81 1024.5
20200225052507 11 321 8.0 25.7 0.00 0.00 0.00 82 1024.4
20200225052009 11 334 11.3 25.7 0.00 0.00 0.00 82 1024.5
20200225051507 11 345 16.1 25.7 0.00 0.00 0.00 82 1024.6
20200225051009 11 5 11.3 27.4 0.00 0.00 0.00 83 1024.6
20200225050507 11 335 14.5 27.4 0.00 0.00 0.00 83 1024.5
20200225050007 10 345 14.5 27.4 0.00 0.00 0.00 83 1024.4
20200225045507 10 347 11.3 22.5 0.00 0.00 0.00 83 1024.5
20200225045010 10 343 14.5 22.5 0.00 0.00 0.00 83 1024.3
20200225044507 10 338 11.3 19.3 0.00 0.00 0.00 84 1024.4
20200225044008 10 24 4.8 24.1 0.00 0.00 0.00 84 1024.4
20200225043506 10 355 9.7 24.1 0.00 0.00 0.00 84 1024.3
20200225043009 10 4 11.3 24.1 0.00 0.00 0.00 84 1024.2
20200225042507 10 5 9.7 24.1 0.00 0.00 0.00 84 1024.0
20200225042008 10 349 9.7 20.9 0.00 0.00 0.00 84 1024.0
20200225041506 11 6 8.0 24.1 0.00 0.00 0.00 84 1024.0
20200225041009 11 342 16.1 25.7 0.00 0.00 0.00 83 1024.1
20200225040506 11 355 9.7 32.2 0.00 0.00 0.00 83 1024.2
20200225040006 11 353 20.9 32.2 0.00 0.00 0.00 84 1024.4
20200225035507 10 336 14.5 22.5 0.00 0.00 0.00 83 1024.4
20200225035008 10 15 4.8 32.2 0.00 0.00 0.00 84 1024.5
20200225034506 10 4 11.3 35.4 0.00 0.00 0.00 83 1024.8
20200225034008 10 343 20.9 35.4 0.00 0.00 0.00 84 1024.8
20200225033506 10 340 22.5 32.2 0.00 0.00 0.00 84 1024.6
20200225033009 10 5 14.5 32.2 0.00 0.00 0.00 84 1024.6
20200225032506 10 340 11.3 25.7 0.00 0.00 0.00 85 1024.5
20200225032008 10 332 16.1 25.7 0.00 0.00 0.00 85 1024.6
20200225031506 10 353 12.9 24.1 0.00 0.00 0.00 85 1024.6
20200225031009 10 352 11.3 29.0 0.00 0.00 0.00 85 1024.6
20200225030506 10 349 14.5 29.0 0.00 0.00 0.00 85 1024.7
20200225030007 10 1 14.5 29.0 0.00 0.00 0.00 85 1024.9
20200225025506 10 348 11.3 32.2 0.00 0.00 0.00 85 1024.8
20200225025008 10 352 19.3 32.2 0.00 0.00 0.00 85 1025.0
20200225024506 10 342 19.3 32.2 0.00 0.00 0.00 85 1024.9
20200225024008 10 7 14.5 29.0 0.00 0.00 0.00 85 1024.8
20200225023511 10 353 16.1 29.0 0.00 0.00 0.00 86 1024.9
20200225023009 10 339 14.5 29.0 0.00 0.00 0.00 86 1025.0
20200225022507 10 340 19.3 29.0 0.00 0.00 0.00 87 1025.2
20200225022008 10 346 14.5 33.8 0.00 0.00 0.00 87 1025.1
20200225021506 10 345 20.9 33.8 0.00 0.00 0.00 87 1025.1
20200225021012 10 348 14.5 24.1 0.00 0.00 0.00 88 1025.2
20200225020507 10 337 14.5 24.1 0.00 0.00 0.00 88 1025.2
20200225020007 10 1 11.3 32.2 0.00 0.00 0.00 88 1025.2
20200225015506 10 347 19.3 32.2 0.00 0.00 0.00 88 1025.1
20200225015009 10 349 9.7 24.1 0.00 0.00 0.00 88 1025.1
20200225014506 10 330 11.3 24.1 0.00 0.00 0.00 88 1024.8
20200225014008 10 20 11.3 24.1 0.00 0.00 0.00 88 1024.7
20200225013506 10 111 1.6 12.9 0.00 0.00 0.00 88 1024.6
20200225013008 10 101 3.2 12.9 0.00 0.00 0.00 88 1024.6
20200225012508 10 145 1.6 19.3 0.00 0.00 0.00 88 1024.9
20200225012009 10 17 3.2 24.1 0.00 0.00 0.00 89 1025.0
20200225011506 10 289 3.2 49.9 0.00 0.00 0.00 89 1025.1
20200225011009 10 346 11.3 49.9 0.00 0.00 0.00 89 1025.1
20200225010506 10 292 4.8 27.4 0.00 0.00 0.00 89 1025.1
20200225010008 10 338 11.3 27.4 0.00 0.00 0.00 89 1025.2
20200225005506 10 317 4.8 11.3 0.00 0.00 0.00 89 1025.2
20200225005008 10 234 3.2 11.3 0.00 0.00 0.00 89 1025.2
20200225004507 10 79 1.6 11.3 0.00 0.00 0.00 89 1025.2
20200225004009 10 110 0.0 16.1 0.00 0.00 0.00 89 1025.3
20200225003506 10 31 3.2 16.1 0.00 0.00 0.00 89 1025.3
20200225003008 10 121 1.6 14.5 0.00 0.00 0.00 88 1025.3
20200225002506 10 348 6.4 14.5 0.00 0.00 0.00 88 1025.3
20200225002009 10 112 0.0 14.5 0.00 0.00 0.00 88 1025.3
20200225001506 10 32 1.6 14.5 0.00 0.00 0.00 88 1025.4
20200225001008 10 3 4.8 14.5 0.00 0.00 0.00 88 1025.3
20200225000508 10 9 3.2 14.5 0.00 0.00 0.00 88 1025.2
20200225000007 10 49 8.0 14.5 0.00 0.00 0.00 88 1025.2
20200224235506 10 96 6.4 16.1 0.00 0.00 0.00 88 1025.2
20200224235008 10 60 8.0 16.1 0.00 0.00 0.00 88 1025.1
20200224234507 10 89 8.0 14.5 0.00 0.00 0.00 88 1025.1
20200224234008 10 59 8.0 14.5 0.00 0.00 0.00 88 1025.1
20200224233506 10 103 8.0 12.9 0.00 0.00 0.00 87 1025.0
20200224233008 10 87 8.0 12.9 0.00 0.00 0.00 87 1025.0
20200224232506 10 89 3.2 11.3 0.00 0.00 0.00 87 1025.1
20200224232009 10 138 4.8 8.0 0.00 0.00 0.00 87 1025.1
20200224231506 10 158 4.8 8.0 0.00 0.00 0.00 87 1025.1
20200224231008 10 148 3.2 8.0 0.00 0.00 0.00 87 1025.2
20200224230506 10 191 0.0 9.7 0.00 0.00 0.00 87 1025.3
20200224230006 10 130 0.0 12.9 0.00 0.00 0.00 88 1025.4
20200224225506 10 161 8.0 12.9 0.00 0.00 0.00 88 1025.3
20200224225009 10 160 9.7 11.3 0.00 0.00 0.00 88 1025.5
20200224224506 11 157 4.8 11.3 0.00 0.00 0.00 88 1025.8
20200224224008 11 120 0.0 11.3 0.00 0.00 0.00 88 1025.9
20200224223506 11 149 4.8 8.0 0.00 0.00 0.00 87 1025.8
20200224223009 11 176 3.2 12.9 0.00 0.00 0.00 87 1025.7
20200224222506 11 147 4.8 20.9 0.00 0.00 0.00 87 1025.8
20200224222009 11 128 8.0 24.1 0.00 0.00 0.00 87 1025.8
20200224221506 11 330 9.7 29.0 0.00 0.00 0.00 87 1025.8
20200224221008 11 323 9.7 29.0 0.00 0.00 0.00 87 1025.8
20200224220507 11 340 14.5 29.0 0.00 0.00 0.00 88 1025.9
20200224220008 11 6 11.3 27.4 0.00 0.00 0.00 88 1026.0
20200224215506 11 326 14.5 27.4 0.00 0.00 0.00 88 1025.9
20200224215008 11 82 4.8 19.3 0.00 0.00 0.00 88 1025.9
20200224214506 11 310 8.0 29.0 0.00 0.00 0.00 88 1025.8
20200224214009 11 335 8.0 29.0 0.00 0.00 0.00 88 1025.8
20200224213506 11 340 16.1 29.0 0.00 0.00 0.00 88 1025.8
20200224213008 11 334 11.3 37.0 0.00 0.00 0.00 88 1025.8
20200224212505 11 340 17.7 37.0 0.00 0.00 0.00 88 1025.7
20200224212008 11 359 16.1 32.2 0.00 0.00 0.00 88 1025.8
20200224211506 11 347 14.5 40.2 0.00 0.00 0.00 88 1025.7
20200224211008 11 15 14.5 41.8 0.00 0.00 0.00 89 1025.8
20200224210514 11 330 20.9 41.8 0.00 0.00 0.00 89 1025.8
20200224210007 11 339 22.5 35.4 0.00 0.00 0.00 89 1025.9
20200224205506 11 78 9.7 19.3 0.00 0.00 0.00 89 1025.7
20200224205008 11 50 6.4 19.3 0.00 0.00 0.00 89 1025.6
20200224204506 11 128 4.8 20.9 0.00 0.00 0.00 89 1025.5
20200224204009 11 354 6.4 32.2 0.00 0.00 0.00 89 1025.4
20200224203506 11 342 14.5 32.2 0.00 0.00 0.00 89 1025.3
20200224203009 11 320 16.1 35.4 0.00 0.00 0.00 89 1025.4
20200224202507 11 325 16.1 35.4 0.00 0.00 0.00 88 1025.3
20200224202008 11 337 11.3 45.1 0.00 0.00 0.00 88 1025.1
20200224201506 11 322 27.4 49.9 0.00 0.00 0.00 88 1024.8
20200224201010 11 336 33.8 49.9 0.00 0.00 0.00 87 1024.9
20200224200506 11 322 25.7 40.2 0.00 0.00 0.00 85 1025.0
20200224200006 11 319 22.5 40.2 0.00 0.00 0.00 82 1025.0
20200224195507 12 313 22.5 38.6 0.00 0.00 0.00 81 1024.8
20200224195008 12 312 25.7 38.6 0.00 0.00 0.00 78 1024.9
20200224194507 12 314 22.5 33.8 0.00 0.00 0.00 75 1025.0
20200224194008 12 313 19.3 33.8 0.00 0.00 0.00 73 1024.9
20200224193505 12 311 11.3 24.1 0.00 0.00 0.00 72 1024.8
20200224193009 12 328 9.7 24.1 0.00 0.00 0.00 70 1024.7
20200224192506 12 312 11.3 27.4 0.00 0.00 0.00 71 1024.7
20200224192008 12 315 16.1 32.2 0.00 0.00 0.00 69 1024.7
20200224191506 13 320 16.1 32.2 0.00 0.00 0.00 67 1024.6
20200224191008 13 309 12.9 32.2 0.00 0.00 0.00 66 1024.6
20200224190506 13 319 16.1 32.2 0.00 0.00 0.00 66 1024.6
20200224190006 13 322 16.1 32.2 0.00 0.00 0.00 69 1024.7
20200224185506 13 321 19.3 32.2 0.00 0.00 0.00 70 1024.7
20200224185008 13 311 20.9 32.2 0.00 0.00 0.00 70 1024.5
20200224184506 13 307 25.7 37.0 0.00 0.00 0.00 69 1024.4
20200224184008 14 320 16.1 37.0 0.00 0.00 0.00 68 1024.5
20200224183506 14 321 20.9 35.4 0.00 0.00 0.00 69 1024.5
20200224183008 15 314 16.1 32.2 0.00 0.00 0.00 69 1024.4
20200224182506 15 320 16.1 35.4 0.00 0.00 0.00 67 1024.4
20200224182008 15 352 14.5 35.4 0.00 0.00 0.00 66 1024.3
20200224181506 15 321 19.3 35.4 0.00 0.00 0.00 66 1024.3
20200224181008 15 316 12.9 24.1 0.00 0.00 0.00 64 1024.3
20200224180506 16 324 16.1 29.0 0.00 0.00 0.00 61 1024.3
20200224180006 16 338 17.7 32.2 0.00 0.00 0.00 57 1024.4
20200224175506 16 316 17.7 32.2 0.00 0.00 0.00 57 1024.3
20200224175008 16 308 20.9 25.7 0.00 0.00 0.00 54 1024.3
20200224174505 16 305 12.9 19.3 0.00 0.00 0.00 53 1024.3
20200224174008 17 316 9.7 14.5 0.00 0.00 0.00 55 1024.2
20200224173507 17 316 9.7 14.5 0.00 0.00 0.00 58 1024.1
20200224173008 17 311 9.7 14.5 0.00 0.00 0.00 58 1024.1
20200224172505 17 331 8.0 12.9 0.00 0.00 0.00 58 1024.1
20200224172008 17 330 9.7 14.5 0.00 0.00 0.00 58 1024.1
20200224171507 17 326 9.7 19.3 0.00 0.00 0.00 57 1024.1
20200224171008 17 318 8.0 19.3 0.00 0.00 0.00 54 1024.2
20200224170506 17 328 14.5 25.7 0.00 0.00 0.00 53 1024.1
20200224170006 17 317 16.1 25.7 0.00 0.00 0.00 53 1024.1
20200224165506 17 326 12.9 25.7 0.00 0.00 0.00 57 1024.1
20200224165008 17 338 14.5 20.9 0.00 0.00 0.00 55 1024.1
20200224164506 17 329 11.3 20.9 0.00 0.00 0.00 58 1024.1
20200224164008 17 344 11.3 27.4 0.00 0.00 0.00 62 1024.1
20200224163505 17 323 11.3 32.2 0.00 0.00 0.00 64 1024.2
20200224163008 17 325 20.9 32.2 0.00 0.00 0.00 65 1024.1
20200224162506 17 317 19.3 32.2 0.00 0.00 0.00 64 1024.1
20200224162008 18 311 14.5 24.1 0.00 0.00 0.00 64 1024.2
20200224161506 18 304 11.3 24.1 0.00 0.00 0.00 65 1024.2
20200224161008 18 326 14.5 25.7 0.00 0.00 0.00 64 1024.2
20200224160506 18 340 9.7 25.7 0.00 0.00 0.00 65 1024.2
20200224160005 18 329 14.5 27.4 0.00 0.00 0.00 65 1024.2
20200224155506 18 334 16.1 32.2 0.00 0.00 0.00 65 1024.1
20200224155008 18 312 17.7 32.2 0.00 0.00 0.00 64 1024.1
20200224154505 18 307 22.5 32.2 0.00 0.00 0.00 65 1024.2
20200224154008 18 318 12.9 27.4 0.00 0.00 0.00 66 1024.2
20200224153506 18 314 11.3 24.1 0.00 0.00 0.00 67 1024.3
20200224153008 18 322 14.5 25.7 0.00 0.00 0.00 67 1024.3
20200224152505 18 315 20.9 25.7 0.00 0.00 0.00 66 1024.3
20200224152010 18 321 16.1 27.4 0.00 0.00 0.00 68 1024.3
20200224151506 18 326 16.1 27.4 0.00 0.00 0.00 67 1024.5
20200224151008 18 319 19.3 25.7 0.00 0.00 0.00 68 1024.5
20200224150505 19 358 14.5 19.3 0.00 0.00 0.00 68 1024.5
20200224150005 19 1 9.7 19.3 0.00 0.00 0.00 67 1024.6
20200224145505 20 346 12.9 19.3 0.00 0.00 0.00 66 1024.6
20200224145008 20 340 6.4 16.1 0.00 0.00 0.00 62 1024.6
20200224144506 20 9 4.8 14.5 0.00 0.00 0.00 59 1024.7
20200224144008 19 350 6.4 14.5 0.00 0.00 0.00 65 1024.8
20200224143506 19 338 8.0 19.3 0.00 0.00 0.00 64 1024.9
20200224143008 20 317 11.3 19.3 0.00 0.00 0.00 66 1024.9
20200224142506 20 330 11.3 20.9 0.00 0.00 0.00 65 1024.9
20200224142009 20 320 11.3 20.9 0.00 0.00 0.00 64 1025.0
20200224141506 20 339 14.5 19.3 0.00 0.00 0.00 61 1025.1
20200224141009 20 10 3.2 16.1 0.00 0.00 0.00 58 1025.2
20200224140506 20 337 11.3 16.1 0.00 0.00 0.00 57 1025.3
20200224140005 20 346 9.7 14.5 0.00 0.00 0.00 55 1025.3
20200224135505 20 342 8.0 16.1 0.00 0.00 0.00 54 1025.3
20200224135008 20 5 11.3 19.3 0.00 0.00 0.00 54 1025.4
20200224134506 21 26 11.3 19.3 0.00 0.00 0.00 53 1025.4
20200224134008 21 40 3.2 11.3 0.00 0.00 0.00 50 1025.5
20200224133505 21 41 0.0 11.3 0.00 0.00 0.00 47 1025.6
20200224133007 21 17 4.8 11.3 0.00 0.00 0.00 46 1025.7
20200224132505 21 341 6.4 12.9 0.00 0.00 0.00 44 1025.7
20200224132008 21 48 1.6 12.9 0.00 0.00 0.00 43 1025.8
20200224131506 21 30 4.8 12.9 0.00 0.00 0.00 46 1025.9
20200224131008 20 324 3.2 14.5 0.00 0.00 0.00 49 1026.0
20200224130505 20 334 8.0 14.5 0.00 0.00 0.00 47 1026.2
20200224130005 20 1 8.0 14.5 0.00 0.00 0.00 47 1026.3
20200224125506 20 339 4.8 14.5 0.00 0.00 0.00 49 1026.3
20200224125008 20 348 6.4 16.1 0.00 0.00 0.00 46 1026.4
20200224124505 21 330 9.7 16.1 0.00 0.00 0.00 49 1026.5
20200224124007 21 29 4.8 11.3 0.00 0.00 0.00 51 1026.6
20200224123505 21 60 0.0 3.2 0.00 0.00 0.00 54 1026.7
20200224123008 20 41 0.0 4.8 0.00 0.00 0.00 54 1026.8
20200224122506 20 112 1.6 4.8 0.00 0.00 0.00 57 1026.9
20200224122008 20 115 1.6 4.8 0.00 0.00 0.00 55 1026.9
20200224121505 20 114 1.6 4.8 0.00 0.00 0.00 55 1027.0
20200224121008 20 96 1.6 4.8 0.00 0.00 0.00 55 1027.1
20200224120506 20 123 1.6 4.8 0.00 0.00 0.00 56 1027.1
20200224120006 19 125 0.0 4.8 0.00 0.00 0.00 57 1027.2
20200224115505 19 73 0.0 4.8 0.00 0.00 0.00 56 1027.2
20200224115008 19 116 1.6 4.8 0.00 0.00 0.00 56 1027.3
20200224114506 19 117 1.6 4.8 0.00 0.00 0.00 57 1027.3
20200224114008 18 130 1.6 4.8 0.00 0.00 0.00 57 1027.3
20200224113506 18 104 1.6 4.8 0.00 0.00 0.00 58 1027.3
20200224113008 18 102 0.0 4.8 0.00 0.00 0.00 57 1027.4
20200224112506 18 102 1.6 4.8 0.00 0.00 0.00 55 1027.4
20200224112008 18 102 1.6 4.8 0.00 0.00 0.00 56 1027.4
20200224111505 18 99 0.0 4.8 0.00 0.00 0.00 56 1027.5
20200224111008 18 113 0.0 3.2 0.00 0.00 0.00 58 1027.4
20200224110507 17 115 0.0 4.8 0.00 0.00 0.00 59 1027.5
20200224110005 17 116 0.0 4.8 0.00 0.00 0.00 60 1027.5
20200224105505 17 115 1.6 4.8 0.00 0.00 0.00 60 1027.4
20200224105008 17 111 1.6 4.8 0.00 0.00 0.00 60 1027.4
20200224104506 17 112 1.6 4.8 0.00 0.00 0.00 61 1027.5
20200224104011 16 110 0.0 4.8 0.00 0.00 0.00 63 1027.5
20200224103505 16 110 0.0 4.8 0.00 0.00 0.00 64 1027.4
20200224103009 16 112 1.6 4.8 0.00 0.00 0.00 64 1027.5
20200224102505 16 112 1.6 4.8 0.00 0.00 0.00 65 1027.5
20200224102008 16 112 3.2 4.8 0.00 0.00 0.00 65 1027.5